Location: Orange Harbor Mobile Home Park
(26.6923°N, 81.7937°W)
Time: 23:15:59
(UTC+00:00)

YAOGAN 1 - Pass Details

Date: 19 September 2020
Orbit: 618 x 620 km, 97.9° (Epoch: 25 October)

Event Time Altitude Azimuth Distance (km) Brightness Sun altitude
Rises 00:44:38 0° 183° (S) 2,880 5.9 -17.9°
Reaches altitude 10° 00:46:55 10° 191° (S) 1,978 5.1 -18.4°
Maximum altitude 00:50:57 40° 261° (W) 923 3.9 -19.3°
Drops below altitude 10° 00:55:01 10° 331° (NNW) 1,987 5.7 -20.2°
Sets 00:57:19 0° 338° (NNW) 2,896 6.5 -20.7°
